Wind_Speed
12 11 10 10 10 10 10 10 10 10 11 12 13 14 16 16 17 18 18 18 17 17 18 18 19 21 22 22 23 23 23 21 21 22 22 21 21 21 22 23 24 25 25 23 22 20 19 19 19 20 19 17 15 15 15 14 14 14 14 14 15 14 13 12 12 11 9 8 8 9 8 8 9 10 8 6 5 5 4 3 4 4 4 5 6
11 11 10 10 10 10 11 12 12 13 13 14 15 15 16 17 17 17 17 17 17 18 19 19 19 20 22 23 23 24 24 23 22 23 24 24 23 22 22 22 23 24 24 24 23 21 19 19 20 20 20 18 16 15 15 14 14 14 13 14 14 14 13 12 12 11 10 8 8 9 9 9 9 10 8 6 5 5 4 3 4 4 4 5 6
12 12 12 11 11 11 12 13 14 14 14 15 15 16 16 17 17 16 16 16 17 18 19 20 20 21 22 23 24 24 24 23 23 23 24 25 25 24 23 23 23 24 24 24 23 22 20 19 20 20 20 18 17 15 15 15 14 14 13 13 14 13 13 13 12 11 10 9 9 9 10 9 9 9 8 6 5 5 4 3 4 4 5 5 6
13 13 13 13 13 13 13 13 13 14 14 14 15 16 16 16 16 15 15 16 16 17 19 20 21 22 23 24 25 25 25 25 24 23 24 25 25 25 25 24 25 25 25 24 23 23 21 19 19 20 20 19 17 16 15 15 15 14 13 13 14 13 13 13 13 12 11 10 9 10 10 9 9 9 8 6 5 4 3 3 4 4 5 6 7
13 14 14 14 14 15 14 14 14 14 14 15 15 16 16 16 16 16 16 16 17 18 19 21 23 23 23 24 24 25 25 25 25 24 24 25 26 26 26 26 25 26 26 25 24 24 23 21 19 20 21 20 18 17 16 16 15 15 13 13 14 14 13 13 13 12 12 11 10 10 10 10 9 9 8 6 4 4 3 3 4 4 5 6 7
15 15 14 15 15 15 15 15 14 14 15 16 16 17 17 17 17 17 17 18 18 18 19 21 23 24 24 24 24 24 25 26 26 25 24 25 26 27 28 27 26 26 26 25 25 24 24 22 20 20 21 20 19 18 17 17 16 15 14 13 14 14 13 13 13 13 12 11 11 11 11 10 9 8 7 6 5 4 3 3 4 4 5 7 9
16 16 15 15 15 15 16 16 15 15 16 17 17 18 18 18 19 19 19 19 19 19 20 21 22 24 24 23 23 24 25 25 26 26 25 25 26 28 28 28 27 27 26 26 25 24 24 23 22 21 21 20 20 19 19 18 17 16 15 14 14 14 14 13 13 13 12 11 11 11 11 10 9 8 7 6 5 5 4 4 4 5 6 8 9
17 17 16 16 16 16 16 16 16 16 17 17 18 19 19 20 20 21 21 21 21 21 21 21 22 23 24 23 23 23 24 25 25 26 26 26 26 28 29 29 28 27 27 27 26 25 24 23 23 23 23 21 21 20 19 19 18 17 16 15 14 14 14 13 13 13 12 11 11 11 10 10 9 8 8 7 6 6 6 5 6 6 7 8 10
17 17 17 17 17 17 17 17 17 18 18 19 19 20 21 21 21 22 22 23 23 22 22 21 21 22 23 23 23 23 24 24 25 25 26 26 26 27 29 29 29 28 28 28 27 26 25 23 23 24 25 24 22 21 20 20 19 18 17 16 14 14 14 14 13 13 12 11 11 11 10 9 10 9 8 8 7 7 7 6 7 8 8 9 10
17 18 18 18 18 19 19 19 19 19 20 20 21 21 22 22 23 23 23 23 23 23 22 22 21 22 22 23 24 23 24 24 25 25 25 26 26 27 28 28 29 29 28 28 28 27 26 24 23 23 25 26 25 23 21 21 20 19 19 18 15 15 15 14 13 13 12 11 10 11 10 9 10 10 9 8 9 8 8 7 8 9 10 10 11
18 19 19 19 19 20 20 20 20 21 21 21 22 22 23 23 23 23 23 24 24 24 23 23 23 22 22 23 24 24 24 24 24 25 24 24 25 26 27 28 28 28 28 28 28 28 27 26 25 24 24 26 26 25 24 22 22 21 20 19 17 15 15 15 14 13 13 12 11 11 11 10 10 10 9 9 10 9 9 9 9 10 12 12 12
20 20 20 20 21 21 21 21 21 22 22 22 22 23 23 24 24 24 24 25 25 25 24 23 23 23 23 24 24 24 24 24 24 24 24 24 24 25 26 27 28 28 29 28 28 28 27 27 27 26 25 25 25 26 25 25 24 24 23 21 19 16 15 15 14 14 14 13 12 12 11 10 10 10 10 10 11 11 10 9 10 11 13 13 13
21 21 21 21 22 22 22 22 22 23 23 23 23 23 24 24 25 25 25 26 25 25 25 24 24 23 23 23 24 24 23 23 23 23 24 24 24 24 25 26 27 28 28 28 28 28 27 27 27 28 27 26 25 25 26 25 25 25 25 23 21 18 16 16 15 15 14 13 13 13 12 11 11 11 11 11 11 12 11 10 11 12 13 14 14
22 22 22 23 23 23 23 23 23 23 24 24 24 24 24 25 25 26 26 26 26 26 25 25 25 24 23 22 23 24 24 22 22 23 23 23 23 23 24 25 26 26 27 28 27 27 27 27 27 28 28 28 27 25 25 25 25 26 25 24 23 20 18 17 16 16 15 14 13 14 14 13 12 12 12 12 12 13 12 12 12 12 13 14 14
21 22 23 24 24 24 25 25 25 25 25 25 25 25 25 25 26 26 27 27 27 27 27 25 25 25 24 23 22 23 24 23 24 24 24 23 23 23 23 24 24 24 25 26 27 28 28 28 27 28 28 29 29 27 25 26 26 26 26 25 24 22 19 18 17 16 16 15 14 15 15 14 13 13 13 13 13 14 14 13 13 13 13 14 14
21 22 23 23 24 25 25 26 26 26 26 26 26 26 25 25 26 27 27 27 28 28 28 27 26 26 25 24 23 23 24 24 24 26 26 26 25 25 25 26 25 24 24 25 26 27 28 28 28 28 28 28 29 27 26 26 27 26 26 26 25 23 21 20 17 17 17 17 15 15 16 15 14 14 14 13 14 15 15 14 14 14 14 14 15
21 22 22 23 24 25 25 26 26 26 26 27 27 27 27 26 27 27 27 28 28 29 29 28 27 27 26 26 25 24 25 24 24 25 27 27 27 27 26 27 26 26 25 25 25 26 26 28 28 28 29 28 28 27 25 27 28 27 27 27 26 25 23 21 19 18 18 18 17 16 16 16 15 15 15 15 15 16 17 16 16 15 15 16 16
21 22 23 23 24 25 26 26 27 27 28 28 28 28 29 29 28 28 28 28 28 29 29 30 29 28 27 27 26 25 25 25 24 24 26 27 27 27 27 27 27 27 26 26 26 26 26 26 27 28 29 29 28 26 25 26 28 28 28 27 26 25 24 23 21 19 19 19 19 18 18 17 16 16 16 16 16 17 18 18 17 17 16 17 17
22 23 24 25 25 26 27 27 28 28 29 29 30 30 30 30 30 30 29 29 29 29 29 29 30 30 29 28 28 27 26 25 25 23 24 26 27 28 28 28 28 28 28 27 26 27 27 27 27 27 28 29 28 27 26 26 27 29 30 29 27 26 25 25 23 21 20 20 20 20 19 19 18 17 17 17 18 18 20 20 19 18 17 18 17
24 25 26 26 27 28 28 28 29 29 30 30 31 31 31 31 32 32 31 31 30 30 30 29 29 30 30 30 30 29 29 28 27 25 23 23 25 28 29 29 29 28 28 28 28 27 27 27 27 27 27 28 29 28 28 28 27 29 31 30 29 28 27 26 26 24 21 21 21 21 21 21 20 19 19 18 19 20 21 21 20 19 19 18 18
26 26 27 28 28 29 29 30 30 30 30 31 31 31 32 32 32 32 32 32 32 31 31 31 30 30 30 30 30 30 31 31 30 29 26 25 24 26 29 29 29 30 29 29 29 28 28 28 28 28 28 28 29 29 30 30 28 28 31 32 31 31 29 28 27 26 23 22 22 21 22 22 21 20 20 19 19 20 22 22 22 21 20 19 20
26 27 28 28 29 29 30 31 31 31 31 31 32 32 32 33 33 33 33 33 33 33 32 32 32 31 31 31 31 31 31 32 32 32 31 29 26 26 29 29 29 30 31 30 31 30 28 29 29 28 28 28 29 29 30 31 30 29 31 34 34 32 31 30 28 27 25 23 22 22 23 23 22 21 20 20 20 21 22 23 23 22 21 21 21
27 27 28 28 29 30 31 31 31 32 32 32 32 33 33 34 34 34 34 34 34 34 34 34 33 33 32 32 32 32 32 32 33 33 33 33 31 28 29 30 29 30 32 31 32 31 30 29 29 29 29 29 29 29 29 31 32 31 31 35 36 33 32 31 30 29 27 25 24 23 23 24 23 22 23 22 21 22 23 24 24 24 23 22 22
28 29 29 30 30 31 31 32 32 32 32 32 32 33 33 34 34 35 35 35 35 35 35 35 35 34 34 33 33 33 33 33 33 34 34 34 33 31 31 32 31 30 32 32 32 32 32 31 29 29 30 30 30 29 29 30 31 32 32 35 37 35 33 32 32 31 29 27 26 24 24 25 24 24 24 24 23 23 23 24 24 25 24 23 23
30 30 31 31 32 32 32 32 32 33 33 33 33 33 34 34 34 35 35 35 36 36 35 35 35 35 35 35 34 34 34 34 34 34 35 35 35 34 32 33 32 31 31 32 33 33 33 33 31 29 29 30 30 30 29 30 30 31 32 35 37 35 34 34 33 32 31 29 28 26 26 26 25 25 26 26 25 25 24 25 25 25 25 25 24
31 32 32 32 33 33 33 33 33 34 34 34 34 34 34 35 35 35 36 36 36 36 36 36 36 36 36 35 35 35 35 35 35 35 35 36 36 36 34 33 33 32 32 32 33 33 34 35 33 31 30 30 31 30 29 30 29 29 30 33 36 36 35 34 33 32 32 32 30 29 28 27 26 27 27 27 27 27 26 25 25 26 26 26 25
33 33 34 34 35 35 35 35 35 35 35 35 34 34 35 35 35 36 36 36 37 37 37 37 37 37 37 36 36 36 37 37 37 36 36 37 37 38 37 35 34 33 32 32 32 33 34 36 35 33 32 31 31 30 29 30 29 27 29 32 35 37 36 33 32 34 35 34 32 31 29 29 28 28 27 28 28 28 28 27 27 27 27 27 27
34 35 35 36 37 37 37 37 37 37 36 35 35 35 35 36 36 36 37 37 37 37 37 38 38 38 38 38 38 38 38 38 38 37 37 37 38 39 39 39 38 36 34 32 32 33 35 36 35 34 34 33 31 30 30 29 29 28 28 31 34 37 38 35 35 38 38 36 34 33 32 31 30 29 28 28 29 29 29 28 28 29 28 28 28
35 36 37 37 38 38 39 39 39 38 36 36 36 36 37 37 37 37 37 37 37 37 38 38 38 39 39 39 39 39 39 39 39 39 39 39 39 40 40 41 41 40 38 35 32 32 35 37 36 35 35 35 33 32 30 30 30 29 28 30 34 37 39 40 40 41 39 38 36 35 34 32 32 31 30 29 29 30 30 29 29 29 29 29 28
37 37 38 39 39 39 40 40 40 38 37 37 38 38 38 38 37 37 37 37 38 37 38 38 39 39 40 40 40 39 39 40 40 40 40 40 41 42 42 43 43 44 43 40 35 32 34 36 37 36 36 36 35 34 32 30 31 32 31 30 32 36 39 41 42 42 40 39 38 37 35 34 33 33 32 30 30 31 31 30 30 31 30 30 30
38 39 39 40 40 41 41 41 40 38 38 39 39 39 38 38 37 37 37 37 37 37 38 38 39 39 40 40 40 40 40 41 41 41 42 42 43 43 44 45 45 45 46 45 41 36 35 36 37 38 38 37 36 36 34 32 32 33 34 32 31 34 39 42 43 42 41 39 40 39 37 36 35 34 33 32 31 32 33 32 31 32 32 31 31
39 39 40 40 41 41 41 40 39 39 39 40 40 39 38 37 37 37 37 37 37 38 38 38 39 39 40 40 41 41 41 42 42 43 43 44 45 45 46 46 47 47 47 48 46 41 37 37 38 38 39 39 38 38 37 35 33 33 34 34 32 33 38 42 43 42 40 40 42 41 39 38 37 36 34 33 33 33 33 33 33 33 33 32 32
39 40 40 41 42 41 40 39 39 39 40 40 40 39 38 38 37 37 37 37 37 37 38 38 39 39 40 40 41 41 42 42 43 44 44 45 45 46 46 47 47 48 49 49 49 46 41 40 40 39 40 41 40 39 40 38 36 35 34 34 34 34 36 41 45 43 40 42 44 42 41 40 39 38 36 35 35 35 34 33 33 34 34 34 33
39 40 41 42 42 41 40 40 40 40 40 40 39 38 38 38 38 37 37 37 37 37 37 37 38 39 39 40 41 42 42 43 44 44 45 45 46 46 46 47 47 48 49 50 50 49 44 42 42 41 41 42 41 40 41 41 39 37 36 35 36 37 37 38 45 47 43 42 44 43 43 43 41 40 39 37 36 36 35 35 34 35 35 35 35
39 41 42 42 41 40 40 40 40 40 40 40 39 38 38 38 38 37 36 36 36 36 37 38 38 39 40 41 42 43 44 45 46 47 47 48 48 48 48 48 48 48 50 51 50 50 47 43 43 43 43 43 44 42 42 43 42 40 38 36 36 38 38 37 40 47 47 44 44 44 46 47 45 42 41 39 38 38 37 37 36 36 36 36 36
40 41 41 40 40 40 40 40 40 40 40 39 39 38 38 38 37 37 37 37 37 38 38 39 40 41 42 44 44 45 46 47 48 49 50 51 51 52 51 51 51 51 51 52 52 52 50 46 44 44 44 44 45 45 44 43 44 44 42 40 37 37 39 38 38 43 48 47 44 45 47 48 47 44 43 41 40 39 39 38 37 37 37 37 37
40 40 39 39 39 40 40 40 40 40 40 39 39 39 38 38 38 38 38 39 39 40 41 42 43 44 45 46 46 47 48 49 49 50 51 52 52 53 54 54 54 54 54 54 55 54 53 51 47 45 46 45 45 46 47 46 45 46 45 43 40 38 39 40 38 39 46 49 48 47 48 49 49 46 45 43 42 41 41 40 39 39 38 38 38
38 38 39 39 40 40 40 40 40 40 39 39 39 39 38 39 39 39 40 41 42 43 44 45 46 46 47 48 48 48 49 49 50 50 51 51 52 53 54 54 55 55 56 56 56 56 56 55 53 50 48 48 47 47 48 48 47 47 47 46 43 41 39 40 40 40 42 47 50 50 49 50 50 47 45 45 44 43 42 42 40 40 40 39 39
37 38 38 39 40 40 40 40 40 39 39 39 39 39 39 40 40 41 42 43 44 45 45 46 46 47 48 49 49 50 50 51 51 51 52 52 52 53 53 54 55 55 56 56 57 58 58 57 56 54 52 51 50 48 49 50 50 48 49 49 47 44 41 41 42 43 42 43 47 51 52 51 49 48 47 47 47 45 44 44 43 42 41 41 40
37 37 38 39 40 40 40 39 39 39 39 39 39 40 40 41 42 43 44 44 45 45 46 46 47 48 48 49 50 50 51 52 52 53 54 54 54 54 55 55 56 56 56 57 57 58 59 59 58 57 56 54 53 52 51 51 52 50 50 51 49 47 45 43 42 43 44 43 44 48 54 54 50 49 51 51 50 50 47 46 45 44 43 42 41
36 37 38 39 39 39 38 38 39 40 40 40 40 40 41 42 43 44 44 45 45 46 46 47 48 48 49 49 50 51 51 52 52 53 54 55 56 56 57 57 58 58 58 58 58 58 59 60 60 60 59 57 56 56 55 54 54 53 52 53 52 49 48 46 44 42 44 45 44 44 51 56 54 52 53 53 53 53 49 46 47 47 46 44 42
36 37 38 38 38 38 38 39 40 40 40 40 41 42 43 43 44 44 45 45 46 46 47 47 48 49 50 50 50 51 51 51 52 52 52 53 55 56 57 59 60 61 61 61 60 60 61 61 62 61 61 60 59 59 58 57 57 56 54 54 54 52 50 49 47 44 43 45 46 43 44 52 57 56 53 52 54 54 52 49 50 50 48 45 43
36 36 37 37 37 37 38 39 40 40 40 41 42 43 43 44 44 44 45 46 47 47 48 48 49 49 49 49 49 49 50 50 50 51 51 52 53 55 56 58 60 62 63 64 64 64 64 63 63 63 63 62 61 61 60 59 59 59 58 57 56 54 53 51 49 47 45 44 46 45 41 43 52 58 57 54 55 55 54 53 53 53 51 47 45
35 35 36 36 37 38 39 39 39 40 41 42 43 43 43 43 44 45 46 47 47 48 48 49 48 48 47 47 48 48 49 49 50 50 51 52 54 55 56 57 59 61 63 65 66 66 67 67 66 66 65 65 63 62 62 62 61 61 61 60 58 56 55 53 51 48 46 46 46 47 44 39 41 51 57 58 57 55 55 55 55 54 53 50 47
34 35 35 36 37 38 38 39 39 40 41 42 42 43 43 44 45 46 47 47 48 48 48 47 47 47 47 47 48 48 49 50 50 51 52 53 55 56 57 58 60 61 63 65 66 68 69 69 70 69 68 68 66 64 63 64 64 63 63 62 61 60 57 55 53 49 48 48 48 47 47 43 39 41 49 56 59 57 55 56 57 57 55 53 50
33 34 35 36 37 37 38 39 39 40 40 41 42 42 43 45 46 47 47 47 47 47 47 47 47 47 47 48 48 49 50 51 52 53 54 55 57 58 59 60 62 63 64 66 67 68 69 71 71 72 71 71 70 67 65 65 65 65 65 64 63 63 60 57 55 52 49 50 50 47 47 47 43 39 39 46 55 60 59 57 57 58 58 56 53
33 34 35 36 36 37 38 38 39 39 39 40 41 42 44 45 45 46 46 46 46 46 46 47 47 48 48 49 49 50 51 53 54 55 57 58 60 61 62 63 64 65 66 67 68 69 70 71 72 73 73 74 73 71 68 67 67 66 66 66 65 64 63 61 57 54 51 50 50 48 47 47 47 44 39 37 42 49 55 58 60 60 59 59 57
33 34 35 36 37 37 38 38 38 39 39 40 41 42 43 44 44 44 43 44 44 45 46 47 47 48 48 49 50 51 52 54 55 57 58 59 61 63 64 65 66 67 68 69 70 71 71 72 73 73 74 75 75 74 71 69 68 68 68 68 66 65 65 63 59 55 53 52 50 49 47 46 48 47 42 38 37 39 44 50 58 61 60 59 59
33 34 35 36 36 37 37 37 38 38 39 40 41 42 42 42 42 42 42 43 45 46 46 46 46 47 48 49 50 51 52 54 56 57 58 60 62 64 66 67 68 68 68 67 67 68 69 71 73 74 74 75 76 75 74 71 70 69 69 68 67 66 66 64 61 58 55 53 51 49 47 47 46 44 43 42 41 42 43 44 50 59 62 60 59
33 34 35 35 35 36 36 37 37 38 39 40 41 41 40 40 40 41 42 44 45 45 45 45 46 47 48 49 50 51 53 54 56 58 60 62 64 65 65 65 63 61 59 57 55 55 57 60 65 69 72 74 75 75 75 73 71 71 70 68 67 68 67 64 62 60 57 54 52 50 48 47 45 42 43 44 42 42 45 45 46 54 62 63 61
33 34 34 34 34 35 35 36 38 39 40 40 39 39 39 39 40 42 43 44 44 44 44 44 46 47 48 49 51 52 53 55 56 59 62 64 64 61 58 55 52 48 44 41 41 41 42 45 50 57 64 69 72 73 73 74 72 71 70 68 67 68 67 64 63 62 59 55 52 51 49 47 45 42 43 45 43 41 44 46 46 50 59 64 62
Wind_Direction
335 335 332 325 319 317 317 321 322 320 316 311 311 313 316 316 313 310 309 309 309 310 312 312 312 312 311 309 306 304 303 303 302 301 300 299 298 296 296 297 298 298 298 298 296 296 296 295 294 293 292 293 293 292 292 292 293 293 294 296 300 302 303 302 302 301 296 285 279 279 279 279 281 280 278 277 278 277 272 268 266 254 231 217 209
332 335 333 326 316 309 307 309 312 313 313 312 312 313 314 313 311 310 309 309 308 308 309 309 309 310 311 309 306 305 304 304 303 301 300 300 300 299 298 297 297 297 297 297 296 293 292 292 290 290 291 292 292 292 291 290 290 291 292 294 296 300 301 300 300 299 295 285 278 278 279 279 280 277 273 270 270 270 265 257 254 242 221 206 196
328 331 330 326 318 309 305 304 305 306 308 310 311 311 313 314 314 315 315 312 309 307 307 306 306 308 309 308 306 305 304 304 302 300 298 298 298 298 297 298 298 297 298 298 296 293 291 289 287 288 290 292 292 291 290 289 288 289 291 292 293 297 299 297 296 295 292 284 276 276 277 278 278 273 267 262 260 261 258 245 242 230 210 197 185
324 327 326 325 320 314 310 306 305 305 307 309 311 312 313 314 316 317 315 312 308 305 304 304 304 305 305 305 305 305 305 305 304 301 298 297 297 296 295 295 295 296 298 299 298 294 290 286 283 284 287 291 293 292 290 288 287 287 289 291 292 294 296 295 292 290 288 282 276 275 276 276 273 268 261 255 249 249 245 233 229 216 202 191 182
320 322 322 322 321 318 315 312 310 308 308 310 311 313 313 312 312 312 310 308 306 304 303 303 302 303 303 303 303 303 305 306 305 303 300 298 296 295 293 293 293 294 295 298 299 296 290 284 280 280 282 286 290 291 290 288 286 286 287 289 291 291 293 293 290 287 283 279 276 275 275 272 266 259 255 249 239 233 225 218 215 204 196 186 180
318 318 317 318 318 318 317 315 313 311 310 311 312 312 311 309 308 307 307 307 306 304 303 303 302 303 303 302 302 301 302 303 303 302 301 299 296 294 293 293 293 292 293 294 296 298 294 286 280 278 278 281 286 290 290 288 285 285 285 288 288 288 289 290 289 285 281 276 274 274 274 269 258 250 246 240 227 217 206 203 204 193 190 182 175
316 315 313 314 315 315 316 315 315 313 312 312 312 311 308 306 304 305 305 305 305 305 305 304 303 303 303 302 301 301 301 300 300 299 299 298 297 295 294 294 294 293 293 292 293 296 297 290 280 276 276 278 283 287 289 287 285 284 283 284 286 286 285 286 286 284 280 275 272 272 272 264 252 243 236 229 219 209 197 195 198 190 185 182 176
313 313 313 313 314 313 313 313 313 312 310 309 308 307 305 302 302 302 302 303 304 305 305 306 305 304 303 302 301 300 299 299 300 299 299 298 297 297 296 296 295 294 293 292 291 293 296 295 284 274 274 278 281 283 286 286 284 282 281 281 283 284 282 281 282 282 280 276 271 271 269 259 245 237 230 223 217 208 198 193 195 193 188 185 180
309 311 313 313 313 312 311 310 309 308 307 306 305 304 302 301 300 300 300 301 303 304 305 306 305 304 302 302 301 301 300 300 300 300 299 299 299 297 297 296 296 294 293 292 291 290 293 297 291 277 271 274 280 281 283 285 283 282 279 278 280 281 280 278 278 280 279 276 270 267 264 253 240 231 225 221 219 213 205 197 197 197 196 193 188
305 308 311 311 311 310 308 308 307 307 306 306 306 304 302 301 300 299 300 301 303 304 305 306 306 305 303 303 302 302 302 302 301 300 300 299 299 297 296 295 294 294 294 293 292 290 289 292 293 285 273 270 275 278 279 281 283 283 279 276 276 277 277 275 275 277 276 273 266 261 258 248 235 228 221 219 220 219 212 205 202 201 200 199 196
301 304 306 307 307 306 306 306 305 306 306 306 306 305 303 302 301 301 300 301 302 303 304 307 307 307 306 304 304 304 304 304 303 304 303 302 300 299 297 295 294 294 294 294 293 290 288 287 289 288 280 272 271 273 275 276 278 281 280 276 273 273 275 274 273 273 271 267 261 255 252 245 234 227 222 219 220 220 216 211 205 203 203 201 200
297 299 301 303 303 303 303 303 304 305 305 305 304 303 302 301 301 300 300 299 300 301 303 306 307 307 306 304 304 305 305 306 307 308 309 308 306 303 301 299 297 296 295 294 293 291 288 286 286 286 284 279 274 271 271 272 274 276 277 275 272 270 272 272 269 268 266 263 259 254 251 245 236 228 224 222 222 219 216 212 205 203 204 202 201
293 295 297 299 300 299 300 300 301 302 303 303 303 302 301 301 300 300 299 299 299 299 301 304 305 305 304 303 303 303 303 305 308 309 311 312 312 309 305 302 300 298 297 295 293 290 288 286 286 285 284 282 277 272 268 268 269 270 271 273 271 267 268 269 266 264 263 261 258 255 251 246 239 232 226 225 224 220 214 209 204 201 202 202 201
293 295 296 298 298 299 300 300 300 301 301 302 302 302 302 302 302 301 300 300 300 299 299 301 302 302 302 302 302 303 303 305 307 308 310 312 312 310 308 305 302 301 299 298 295 290 287 286 285 285 283 280 277 273 270 267 266 266 267 269 269 266 263 265 264 261 260 258 257 255 251 246 240 234 229 226 225 220 213 208 203 200 199 201 202
294 296 297 298 299 299 300 300 300 300 300 301 301 302 303 303 303 302 301 301 300 298 298 298 299 300 302 301 301 302 302 306 307 307 308 309 309 310 309 308 306 304 301 299 297 294 290 286 284 283 282 280 276 274 273 270 266 265 266 266 266 263 260 260 261 259 258 255 253 253 250 247 242 236 230 227 225 220 214 209 205 202 200 201 204
296 298 299 299 300 300 300 300 299 299 299 299 300 301 302 302 301 301 300 299 298 297 297 297 298 299 301 302 302 302 301 304 306 307 308 309 310 310 310 310 311 311 308 302 298 295 293 290 286 282 281 281 277 273 272 270 267 266 265 264 262 261 258 256 257 256 254 252 251 250 247 246 243 239 233 228 226 221 215 213 210 207 205 205 207
299 300 301 301 301 300 300 300 299 299 299 299 299 300 300 300 300 300 299 298 297 296 296 296 296 297 299 300 300 300 300 301 304 306 307 308 308 308 308 308 309 311 312 308 303 298 295 293 290 285 281 281 278 274 270 268 265 264 264 261 259 258 256 255 253 251 251 249 248 247 245 244 241 237 233 229 228 223 217 216 215 213 210 209 210
300 302 304 304 303 303 302 302 302 301 300 300 299 299 299 299 299 298 298 297 296 295 295 295 296 296 296 297 297 297 297 298 300 301 304 305 306 306 306 306 307 308 309 310 308 304 299 295 292 289 283 280 278 275 272 267 264 261 260 258 257 256 255 253 250 249 247 243 243 243 243 244 241 236 233 230 227 225 220 218 219 218 215 212 211
302 304 305 306 306 306 306 305 304 303 302 301 301 300 299 299 298 298 297 296 295 293 292 293 293 294 295 295 296 296 296 296 297 298 300 303 305 306 306 307 307 307 307 308 309 308 304 299 295 291 286 282 279 276 273 269 265 260 257 255 255 254 253 252 249 247 244 240 242 243 242 243 241 237 234 231 227 226 223 220 222 222 219 215 213
305 306 307 307 308 307 307 306 305 304 303 302 301 300 299 298 297 297 296 296 295 293 292 291 290 291 292 294 295 296 296 296 296 296 297 299 302 303 304 305 305 305 306 307 307 308 307 303 299 295 290 284 280 276 272 270 267 261 254 253 253 252 251 251 249 247 243 241 242 242 240 242 241 239 237 232 227 226 225 223 223 224 221 218 216
305 306 307 307 308 308 307 307 306 304 303 302 301 300 299 298 297 296 296 295 294 294 293 292 291 290 290 291 292 293 295 296 296 296 296 295 296 299 299 301 304 305 306 306 306 306 306 305 301 297 292 286 280 275 272 272 273 267 254 249 250 250 249 249 248 247 244 241 241 240 239 239 239 240 237 232 228 226 225 224 225 226 224 221 220
304 305 306 306 307 307 307 306 305 305 303 302 301 300 299 298 298 297 296 295 294 294 293 292 291 290 290 290 290 291 292 294 295 296 296 296 295 296 296 298 301 302 303 304 305 304 304 303 302 299 294 289 283 278 274 272 275 274 259 247 245 246 246 248 248 247 245 242 240 238 238 237 236 238 237 233 230 226 225 225 226 228 227 225 224
303 305 305 306 306 306 306 305 304 304 303 302 301 300 299 298 298 297 296 296 295 294 293 292 291 290 289 289 290 290 291 292 293 294 295 295 295 296 295 296 298 299 300 302 302 303 303 301 300 300 297 293 287 282 278 274 274 276 266 248 242 243 244 247 248 247 245 242 240 238 238 237 235 235 235 232 229 226 225 225 226 229 229 227 227
303 305 306 306 307 306 306 305 303 303 302 301 300 299 299 298 297 297 296 296 295 294 293 292 291 290 290 289 289 289 290 291 292 292 293 294 294 294 293 293 294 296 297 298 299 300 301 299 297 298 297 295 291 284 280 276 275 276 268 249 240 240 243 246 246 246 245 243 240 238 237 236 234 232 232 229 226 225 225 224 226 228 230 229 229
303 305 306 306 306 306 305 304 303 302 302 301 300 299 298 297 296 296 295 295 294 293 292 291 290 289 289 289 289 289 289 290 291 292 293 293 293 293 292 291 291 291 292 293 295 296 297 297 296 295 295 293 291 286 280 277 276 277 268 247 237 238 240 243 244 243 243 242 240 238 237 237 234 231 231 229 226 224 223 224 225 227 230 230 230
302 304 304 304 304 304 304 304 304 303 302 301 300 299 298 297 296 295 295 294 293 292 291 290 289 288 288 288 288 289 289 289 290 291 292 293 293 293 292 291 290 290 290 289 291 292 293 294 295 294 292 291 291 287 281 277 277 278 267 246 235 237 238 241 244 245 244 241 239 238 238 237 235 231 230 230 228 225 223 223 224 226 229 230 230
301 302 303 304 304 305 305 306 306 305 303 302 300 299 298 298 296 295 294 293 292 291 290 289 288 288 287 287 286 287 287 288 288 289 290 291 292 293 292 291 290 289 289 288 288 289 290 290 292 293 291 288 289 287 282 277 275 277 269 250 238 237 238 239 242 244 243 241 239 238 237 237 236 234 231 230 230 228 225 223 223 224 227 229 231
299 300 301 302 303 304 306 307 307 307 305 304 302 301 300 299 298 297 295 293 292 291 290 289 288 288 287 286 286 286 286 287 287 287 288 289 290 291 292 292 290 288 287 286 286 287 286 286 288 290 289 287 286 285 283 276 271 273 270 257 246 241 239 239 239 239 240 239 239 237 236 237 237 236 233 231 231 230 227 224 223 223 225 227 230
296 297 299 300 302 303 305 306 308 308 306 305 304 303 302 300 299 297 296 294 293 291 290 288 288 287 286 285 285 285 285 285 286 287 287 288 288 289 290 290 291 289 287 285 283 283 283 284 285 285 286 286 284 282 281 278 270 268 268 262 255 248 242 239 239 240 240 240 239 238 236 236 237 237 235 232 231 232 230 226 224 224 224 225 227
293 295 297 299 301 303 305 306 307 307 306 305 304 303 301 300 298 296 295 293 292 291 289 288 287 286 285 284 284 284 283 284 284 285 285 286 286 287 288 288 289 289 289 286 283 280 279 280 281 281 281 282 282 280 279 278 272 267 266 265 261 254 246 241 240 240 240 241 241 240 237 236 236 237 236 234 232 230 230 229 226 225 225 225 225
291 293 295 298 300 303 305 306 306 306 305 305 304 303 301 299 298 296 294 292 291 290 289 287 286 285 284 284 284 283 283 283 283 283 283 284 284 285 285 286 286 287 287 287 284 281 277 277 277 278 277 277 278 278 277 276 274 269 266 266 264 257 251 245 242 240 239 241 242 241 239 237 236 237 236 235 233 231 230 230 228 227 226 225 225
289 292 295 297 300 303 305 306 306 305 305 304 303 302 301 299 298 296 294 293 291 290 289 288 287 286 285 284 284 283 283 283 283 282 282 283 283 283 283 284 284 284 284 285 284 282 278 275 274 274 275 274 274 276 275 274 273 271 268 265 264 261 255 249 245 242 238 237 240 241 240 238 237 237 237 236 235 234 232 230 229 229 228 226 226
289 292 294 297 300 303 304 305 305 305 304 304 303 302 301 300 298 297 295 293 292 290 289 288 288 287 286 286 285 284 284 283 283 283 282 282 282 282 282 282 282 283 282 282 282 281 278 275 273 272 272 272 272 273 273 273 271 271 269 265 261 260 257 251 246 244 239 235 237 240 241 240 238 237 236 236 236 235 234 231 230 230 230 228 227
289 292 295 298 300 302 303 304 305 304 304 303 303 302 302 301 299 298 296 295 294 293 292 291 290 289 289 288 287 287 286 285 285 284 284 283 283 282 282 281 281 282 282 281 280 279 278 275 273 271 270 270 270 269 270 271 270 268 268 267 262 258 258 253 246 243 241 236 235 238 239 239 238 237 236 235 235 236 235 233 231 230 231 230 228
289 293 296 299 300 302 304 305 305 305 304 304 304 303 302 301 300 298 297 296 295 294 294 293 292 292 291 290 289 289 288 287 287 286 285 285 284 283 282 282 281 281 281 280 279 278 277 275 272 270 269 268 268 267 266 267 268 267 265 265 263 259 258 258 250 242 241 238 234 235 238 238 237 237 236 235 235 235 235 234 232 232 231 231 230
291 294 297 299 301 303 305 305 305 305 305 304 304 303 302 300 299 297 297 296 295 294 294 293 292 291 290 289 289 288 287 286 286 285 285 284 283 283 282 281 280 279 279 279 278 277 276 274 272 270 268 267 266 266 264 263 265 266 265 263 263 260 256 257 254 244 240 239 236 234 237 239 239 237 237 236 235 235 236 235 233 233 232 232 232
293 295 298 300 302 304 305 305 305 305 304 304 303 302 301 299 298 297 297 296 296 295 294 293 292 291 291 290 289 288 287 286 285 284 283 283 282 282 281 280 279 278 277 276 276 276 275 274 271 269 268 266 265 264 264 262 261 262 264 262 261 260 256 255 256 249 241 239 239 236 234 237 239 238 238 238 236 234 236 236 234 233 233 232 232
294 296 299 301 303 304 305 305 305 304 303 303 302 301 300 299 298 297 297 296 296 296 296 296 295 294 294 293 292 291 289 288 287 286 284 283 282 281 280 279 279 278 277 276 275 274 273 272 271 268 267 266 264 263 263 262 260 259 261 262 260 259 257 255 255 253 246 241 240 238 235 234 235 237 238 239 238 236 236 237 236 234 233 233 233
295 297 299 302 303 304 304 304 303 303 302 302 301 300 298 298 297 298 298 298 298 298 298 298 298 297 297 296 295 294 293 292 290 289 287 285 284 282 280 279 277 276 276 275 274 273 272 271 270 268 266 264 263 262 262 261 260 257 257 259 258 257 255 253 253 253 250 245 242 240 237 235 234 233 235 236 237 236 235 235 236 236 234 233 232
295 297 299 301 302 303 303 302 302 301 301 300 299 299 298 298 299 299 300 300 300 300 300 300 299 298 298 297 296 295 294 293 292 291 289 288 286 284 282 280 278 276 274 273 272 272 271 270 269 268 266 264 261 260 259 259 259 257 255 255 256 255 254 252 252 252 251 248 246 241 238 237 235 231 231 232 233 233 233 233 235 236 235 234 232
295 297 299 301 302 302 301 300 300 300 300 299 299 299 299 300 300 301 301 301 301 301 301 301 300 300 299 298 297 296 295 294 293 292 291 289 288 286 285 283 280 278 275 273 271 270 269 268 268 267 266 264 262 259 257 256 257 256 255 254 253 253 253 252 250 251 251 250 248 244 238 237 237 233 230 230 232 233 231 232 235 235 235 234 233
295 298 299 300 301 300 300 300 300 300 300 300 300 301 301 302 302 302 302 302 302 302 302 302 302 301 301 300 298 297 296 294 293 292 291 290 289 287 286 285 283 281 278 275 273 270 268 266 265 265 264 263 261 259 257 254 254 254 253 253 252 251 250 251 249 249 250 250 249 246 240 237 237 236 232 230 232 233 232 230 232 234 234 234 234
296 298 299 300 300 300 299 300 300 300 300 301 301 302 302 303 303 303 304 304 305 305 304 304 303 303 302 301 300 298 297 296 295 293 292 291 290 288 287 285 284 282 280 278 275 272 269 266 264 262 261 260 259 259 257 254 252 251 251 251 251 249 248 249 248 247 248 250 249 246 242 238 237 237 235 232 231 233 233 231 231 233 232 232 233
297 298 299 299 299 299 299 299 300 301 302 302 303 303 304 304 305 306 306 306 306 306 306 305 304 304 303 303 302 301 300 298 297 296 295 293 292 290 289 287 285 283 282 279 277 275 272 269 265 262 260 258 257 256 256 254 252 250 249 248 249 249 247 246 246 246 246 248 249 246 241 238 238 238 238 236 232 231 233 233 232 234 233 230 230
298 298 299 299 298 298 299 300 301 302 303 304 304 305 306 306 307 308 308 308 307 307 307 307 306 306 305 305 305 304 303 302 301 300 298 296 295 293 291 289 286 284 282 280 278 276 273 271 268 265 262 258 255 253 253 253 251 250 248 246 246 247 246 244 244 243 244 245 247 246 242 238 238 239 240 239 236 233 233 233 233 235 235 233 230
298 298 298 298 298 299 300 301 303 304 304 305 306 307 308 308 309 309 309 309 309 310 310 310 309 309 309 309 308 308 307 306 305 303 301 299 297 295 292 290 288 285 283 281 278 276 273 271 268 266 264 260 256 253 251 250 250 249 247 246 244 244 244 243 242 241 241 243 245 246 244 239 237 239 241 240 238 236 234 234 234 235 235 234 232
298 298 298 299 300 301 302 303 304 305 306 307 308 309 309 309 310 311 311 312 313 313 313 314 313 313 313 313 312 312 311 309 308 306 304 302 300 298 295 293 290 288 285 282 280 277 274 271 268 265 263 261 258 254 251 249 247 247 246 245 243 242 242 242 241 239 239 241 242 244 245 242 239 240 242 241 239 237 237 237 236 236 236 235 234
298 299 299 300 302 303 304 305 306 307 308 308 309 309 310 311 312 313 314 315 316 317 317 318 318 317 317 316 316 315 314 312 311 310 308 306 303 301 299 296 293 291 288 285 281 278 275 271 268 264 261 259 257 255 252 249 246 245 244 244 243 241 240 240 240 239 238 239 240 241 243 244 243 241 240 241 242 242 242 242 239 237 236 236 236
299 299 300 302 303 304 305 306 306 307 308 308 309 310 311 313 315 316 317 318 319 320 320 321 321 321 320 319 318 317 316 315 314 313 311 309 308 305 302 300 296 293 290 286 282 279 275 271 267 264 261 257 255 253 251 248 246 243 242 241 241 241 239 238 237 238 237 237 238 239 239 241 244 242 239 240 243 244 245 246 243 237 234 235 236
299 300 301 302 304 305 305 306 307 307 308 309 311 312 314 316 317 318 319 321 321 322 323 323 323 323 322 322 322 321 320 319 318 317 316 314 312 310 306 302 299 295 292 288 284 281 277 273 269 265 260 256 253 250 248 246 244 242 240 238 239 240 238 236 235 235 235 235 237 238 238 239 241 241 239 239 244 246 244 245 244 239 234 232 234
299 301 302 303 304 305 306 307 308 309 310 311 313 315 316 318 319 320 322 323 324 325 325 326 326 326 326 326 325 325 324 323 322 322 321 320 318 315 311 306 303 300 298 295 292 288 283 280 276 270 264 258 253 248 246 244 242 240 239 236 235 237 237 235 233 233 233 234 235 237 238 237 238 240 237 238 244 249 245 242 243 239 233 231 232
Height
5855 5854 5853 5852 5851 5851 5850 5849 5849 5848 5848 5847 5846 5845 5844 5844 5843 5842 5841 5840 5839 5838 5838 5837 5836 5834 5833 5832 5830 5829 5828 5828 5827 5826 5825 5825 5824 5823 5822 5822 5821 5820 5819 5819 5818 5818 5817 5817 5816 5815 5814 5814 5813 5813 5812 5812 5812 5812 5812 5812 5811 5811 5810 5810 5809 5808 5808 5808 5808 5808 5808 5808 5807 5807 5807 5806 5806 5806 5806 5805 5805 5805 5805 5804 5804
5854 5853 5852 5851 5851 5850 5849 5848 5848 5847 5846 5845 5845 5844 5843 5842 5842 5841 5840 5839 5838 5837 5836 5835 5834 5833 5832 5830 5829 5827 5826 5826 5825 5824 5823 5822 5822 5821 5821 5820 5819 5818 5817 5817 5816 5816 5815 5815 5814 5813 5813 5812 5812 5811 5811 5811 5810 5810 5810 5810 5810 5810 5809 5808 5808 5807 5807 5807 5807 5807 5807 5807 5806 5806 5806 5806 5806 5805 5805 5805 5805 5805 5805 5804 5804
5853 5852 5852 5851 5850 5849 5848 5847 5846 5846 5845 5844 5844 5843 5842 5841 5840 5839 5839 5838 5837 5836 5835 5834 5833 5832 5831 5829 5827 5826 5825 5824 5823 5822 5821 5820 5819 5819 5818 5818 5817 5816 5815 5814 5814 5814 5813 5813 5813 5812 5811 5811 5810 5809 5809 5809 5809 5808 5808 5808 5808 5808 5808 5807 5807 5806 5806 5806 5806 5806 5806 5806 5806 5805 5805 5805 5805 5805 5805 5804 5804 5804 5804 5804 5804
5853 5852 5851 5850 5849 5848 5847 5846 5845 5844 5844 5843 5842 5842 5841 5840 5839 5838 5837 5837 5836 5835 5834 5833 5832 5831 5830 5828 5826 5824 5823 5822 5821 5820 5819 5818 5817 5816 5816 5815 5815 5814 5813 5812 5812 5811 5811 5811 5811 5810 5810 5809 5808 5808 5807 5807 5807 5807 5806 5806 5807 5807 5807 5806 5806 5805 5805 5805 5805 5805 5805 5805 5805 5804 5804 5804 5804 5804 5804 5804 5804 5804 5804 5804 5804
5852 5851 5850 5849 5848 5846 5845 5845 5844 5843 5843 5842 5841 5840 5839 5838 5837 5836 5836 5835 5835 5834 5833 5832 5830 5830 5829 5827 5825 5823 5822 5820 5819 5819 5817 5816 5815 5814 5813 5813 5813 5812 5811 5810 5809 5809 5809 5809 5809 5808 5808 5807 5807 5806 5806 5805 5805 5805 5805 5804 5805 5805 5805 5805 5804 5804 5804 5804 5804 5804 5804 5804 5804 5803 5803 5803 5804 5804 5804 5804 5804 5804 5804 5804 5804
5850 5850 5849 5848 5847 5845 5844 5844 5843 5842 5841 5840 5839 5839 5838 5837 5836 5835 5835 5834 5833 5833 5832 5831 5829 5828 5827 5826 5824 5823 5821 5819 5818 5817 5816 5815 5813 5812 5811 5810 5810 5810 5809 5808 5807 5806 5806 5806 5807 5807 5806 5805 5805 5805 5804 5804 5803 5803 5803 5803 5803 5803 5803 5803 5803 5803 5802 5802 5803 5803 5803 5803 5803 5803 5803 5803 5803 5803 5803 5803 5803 5803 5804 5804 5804
5849 5848 5847 5846 5845 5844 5843 5842 5842 5841 5840 5839 5838 5837 5836 5835 5834 5834 5833 5832 5832 5831 5830 5829 5828 5826 5825 5824 5822 5821 5819 5817 5816 5815 5814 5813 5811 5810 5809 5808 5808 5807 5806 5806 5805 5804 5804 5804 5804 5804 5804 5804 5803 5803 5802 5802 5801 5801 5801 5801 5801 5801 5801 5802 5802 5801 5801 5801 5801 5802 5802 5802 5801 5802 5802 5802 5802 5803 5803 5803 5803 5803 5804 5804 5804
5848 5847 5846 5845 5844 5843 5842 5841 5840 5840 5839 5838 5837 5836 5835 5834 5833 5832 5831 5831 5830 5829 5828 5827 5826 5824 5823 5821 5820 5819 5817 5816 5814 5813 5811 5811 5810 5808 5806 5806 5805 5805 5804 5803 5803 5803 5802 5801 5801 5801 5802 5801 5801 5801 5801 5800 5800 5799 5799 5799 5799 5799 5800 5800 5800 5800 5800 5800 5800 5800 5801 5801 5800 5801 5801 5801 5801 5802 5802 5803 5803 5803 5803 5804 5804
5846 5845 5845 5844 5843 5842 5841 5840 5839 5838 5837 5836 5836 5835 5834 5833 5832 5831 5830 5829 5828 5827 5826 5825 5824 5822 5820 5819 5817 5816 5815 5813 5812 5811 5809 5808 5807 5806 5805 5803 5803 5802 5801 5801 5800 5800 5800 5799 5798 5798 5799 5799 5799 5799 5799 5798 5798 5797 5797 5797 5797 5797 5798 5798 5799 5799 5798 5798 5799 5799 5799 5800 5800 5800 5800 5800 5800 5801 5802 5802 5802 5803 5803 5803 5804
5845 5844 5843 5843 5842 5841 5840 5839 5838 5837 5836 5835 5834 5833 5832 5831 5830 5829 5828 5827 5826 5825 5824 5823 5821 5820 5818 5817 5815 5814 5813 5811 5810 5809 5807 5806 5805 5804 5803 5801 5800 5800 5799 5798 5798 5797 5798 5797 5796 5796 5796 5796 5796 5796 5796 5796 5796 5795 5795 5795 5795 5795 5796 5796 5797 5797 5797 5797 5797 5798 5798 5798 5799 5799 5799 5799 5799 5800 5801 5801 5802 5802 5802 5803 5803
5844 5843 5842 5841 5841 5840 5838 5837 5837 5836 5835 5834 5833 5832 5830 5829 5828 5828 5826 5825 5824 5823 5822 5821 5819 5818 5816 5814 5813 5812 5810 5809 5807 5806 5805 5804 5803 5802 5800 5799 5798 5797 5796 5796 5795 5795 5795 5795 5794 5793 5793 5793 5793 5793 5793 5794 5794 5793 5793 5793 5793 5793 5794 5794 5795 5795 5795 5795 5795 5796 5797 5797 5797 5798 5798 5798 5799 5799 5800 5800 5801 5801 5802 5802 5803
5843 5842 5841 5840 5839 5838 5837 5836 5835 5834 5833 5832 5831 5830 5829 5828 5827 5826 5824 5823 5822 5820 5819 5818 5817 5816 5814 5813 5811 5810 5808 5807 5805 5803 5802 5801 5800 5799 5798 5797 5796 5795 5794 5794 5793 5792 5792 5791 5791 5790 5790 5790 5790 5790 5790 5791 5791 5791 5791 5791 5791 5791 5792 5792 5793 5793 5793 5794 5794 5795 5795 5796 5796 5797 5797 5797 5798 5798 5799 5799 5800 5800 5801 5801 5802
5841 5840 5840 5839 5838 5837 5836 5835 5834 5833 5832 5831 5830 5828 5827 5826 5825 5824 5822 5821 5819 5818 5817 5816 5815 5814 5813 5811 5809 5807 5806 5805 5803 5801 5800 5799 5797 5796 5795 5794 5793 5792 5791 5791 5790 5790 5789 5789 5788 5788 5787 5787 5787 5787 5787 5788 5788 5788 5788 5788 5788 5789 5789 5790 5791 5791 5792 5792 5792 5793 5794 5794 5794 5795 5796 5796 5797 5797 5798 5798 5799 5799 5800 5800 5801
5839 5838 5838 5837 5836 5835 5834 5833 5832 5831 5830 5829 5827 5826 5825 5824 5822 5821 5820 5818 5817 5815 5815 5814 5813 5812 5811 5809 5807 5805 5803 5802 5801 5799 5798 5797 5796 5794 5793 5792 5791 5790 5789 5788 5787 5787 5786 5786 5786 5785 5784 5784 5784 5784 5784 5784 5785 5785 5785 5785 5786 5786 5787 5788 5789 5789 5790 5790 5791 5791 5792 5792 5793 5793 5794 5795 5796 5796 5797 5797 5798 5798 5799 5799 5800
5838 5837 5836 5835 5834 5833 5832 5831 5830 5829 5827 5826 5825 5824 5822 5821 5820 5818 5817 5816 5814 5813 5812 5811 5810 5809 5808 5807 5806 5803 5801 5800 5799 5797 5796 5795 5793 5792 5791 5790 5789 5788 5787 5785 5784 5783 5782 5783 5783 5783 5782 5781 5780 5781 5781 5781 5782 5782 5782 5782 5783 5783 5784 5785 5786 5787 5787 5788 5788 5789 5790 5791 5791 5792 5793 5793 5794 5795 5796 5796 5797 5797 5798 5798 5799
5836 5835 5834 5833 5832 5831 5830 5829 5828 5826 5825 5824 5823 5821 5820 5819 5817 5816 5815 5814 5812 5810 5809 5809 5808 5806 5806 5804 5803 5802 5799 5798 5797 5795 5793 5792 5791 5789 5788 5787 5786 5785 5784 5783 5782 5780 5779 5779 5779 5779 5779 5778 5777 5777 5778 5778 5778 5779 5779 5779 5780 5781 5782 5783 5784 5785 5785 5785 5786 5787 5788 5788 5789 5790 5791 5792 5793 5793 5794 5795 5795 5796 5797 5797 5798
5834 5833 5832 5832 5830 5829 5828 5827 5825 5824 5823 5822 5820 5819 5818 5817 5815 5814 5812 5811 5810 5808 5806 5806 5805 5804 5803 5801 5801 5800 5798 5796 5796 5794 5791 5789 5788 5787 5786 5784 5783 5782 5781 5780 5779 5778 5777 5776 5776 5775 5775 5775 5774 5775 5775 5776 5775 5776 5776 5776 5776 5777 5779 5780 5781 5782 5782 5783 5784 5785 5786 5786 5787 5788 5789 5790 5791 5792 5793 5794 5794 5795 5795 5796 5797
5832 5831 5830 5829 5828 5827 5826 5824 5823 5822 5820 5819 5818 5816 5815 5814 5813 5812 5810 5809 5808 5806 5804 5803 5802 5801 5800 5799 5798 5797 5796 5795 5794 5793 5791 5788 5786 5785 5783 5782 5781 5780 5778 5777 5776 5775 5774 5774 5773 5772 5771 5771 5771 5772 5772 5772 5772 5773 5773 5773 5773 5774 5776 5777 5778 5779 5780 5780 5781 5782 5783 5784 5785 5786 5787 5788 5789 5790 5791 5792 5793 5793 5794 5794 5795
5829 5828 5827 5826 5825 5824 5823 5822 5821 5819 5818 5816 5815 5814 5812 5811 5810 5809 5807 5806 5805 5804 5802 5801 5799 5797 5796 5795 5794 5793 5793 5792 5791 5790 5789 5787 5784 5782 5781 5779 5778 5777 5775 5774 5773 5772 5771 5770 5770 5769 5768 5768 5768 5768 5768 5769 5769 5769 5769 5770 5770 5771 5772 5773 5775 5776 5777 5778 5778 5780 5781 5782 5783 5784 5785 5786 5787 5788 5789 5790 5791 5791 5792 5793 5794
5826 5825 5825 5824 5823 5822 5821 5819 5818 5817 5815 5814 5813 5811 5810 5808 5807 5806 5804 5803 5802 5800 5799 5798 5797 5795 5793 5792 5791 5790 5789 5788 5788 5787 5787 5786 5784 5781 5779 5777 5776 5774 5773 5771 5770 5770 5769 5767 5766 5766 5765 5764 5764 5764 5764 5765 5765 5765 5766 5767 5767 5767 5768 5770 5771 5772 5774 5774 5775 5777 5779 5779 5780 5781 5782 5784 5785 5786 5787 5788 5789 5790 5790 5791 5792
5824 5823 5822 5821 5820 5819 5818 5816 5815 5814 5813 5811 5810 5809 5807 5806 5804 5803 5801 5800 5798 5797 5796 5794 5793 5792 5791 5789 5788 5787 5785 5784 5784 5783 5783 5783 5782 5779 5777 5776 5774 5771 5770 5769 5767 5767 5766 5764 5763 5762 5762 5761 5760 5761 5761 5760 5761 5761 5762 5763 5763 5763 5765 5766 5767 5769 5770 5771 5773 5775 5776 5776 5777 5778 5780 5781 5782 5783 5785 5786 5787 5788 5788 5789 5790
5821 5820 5819 5818 5817 5816 5815 5814 5812 5811 5810 5808 5807 5805 5804 5802 5801 5800 5798 5797 5795 5794 5792 5791 5790 5788 5787 5786 5785 5783 5782 5781 5779 5779 5778 5778 5778 5777 5774 5773 5772 5770 5767 5766 5765 5764 5763 5761 5760 5759 5758 5758 5757 5757 5757 5757 5757 5757 5758 5758 5758 5759 5761 5762 5764 5765 5767 5768 5770 5771 5772 5773 5774 5776 5777 5779 5780 5781 5782 5783 5785 5785 5786 5787 5788
5819 5818 5817 5816 5815 5814 5812 5811 5810 5808 5807 5805 5804 5802 5801 5799 5798 5796 5795 5793 5792 5790 5789 5787 5786 5785 5783 5782 5781 5780 5778 5777 5776 5775 5774 5773 5773 5773 5771 5769 5769 5767 5765 5764 5762 5761 5760 5759 5757 5756 5755 5754 5754 5754 5753 5753 5753 5753 5753 5753 5754 5755 5757 5759 5760 5761 5763 5765 5766 5768 5769 5770 5771 5773 5774 5776 5777 5778 5780 5781 5782 5783 5784 5785 5786
5816 5815 5814 5813 5812 5811 5810 5808 5807 5805 5804 5802 5800 5799 5797 5796 5794 5793 5791 5790 5788 5787 5785 5784 5783 5781 5780 5778 5777 5775 5774 5773 5772 5771 5769 5768 5768 5768 5768 5766 5765 5764 5762 5761 5759 5758 5756 5755 5754 5753 5752 5751 5750 5750 5749 5748 5748 5748 5748 5748 5749 5751 5753 5754 5756 5758 5759 5761 5762 5764 5765 5766 5768 5770 5771 5772 5774 5775 5776 5778 5779 5781 5782 5783 5784
5813 5812 5811 5810 5809 5808 5807 5805 5804 5802 5800 5799 5797 5795 5794 5792 5791 5789 5788 5786 5785 5783 5782 5780 5779 5777 5776 5774 5773 5771 5770 5768 5767 5766 5765 5764 5763 5763 5763 5762 5761 5761 5760 5757 5756 5754 5753 5751 5751 5750 5749 5747 5746 5746 5745 5744 5744 5743 5742 5743 5744 5746 5749 5750 5752 5754 5755 5757 5758 5760 5761 5763 5765 5767 5768 5769 5770 5772 5773 5775 5776 5778 5779 5780 5781
5811 5810 5809 5808 5806 5805 5803 5802 5800 5798 5797 5795 5793 5792 5790 5788 5787 5785 5784 5782 5781 5779 5778 5776 5775 5773 5772 5770 5769 5767 5766 5764 5763 5761 5760 5759 5758 5757 5758 5758 5757 5756 5756 5754 5753 5751 5749 5747 5747 5747 5745 5744 5743 5742 5741 5740 5740 5739 5738 5739 5740 5742 5745 5747 5749 5751 5752 5753 5754 5755 5757 5759 5761 5763 5764 5765 5767 5768 5769 5771 5773 5775 5776 5777 5778
5808 5807 5806 5804 5803 5802 5800 5798 5797 5795 5793 5791 5789 5788 5786 5784 5783 5781 5780 5778 5776 5775 5773 5772 5770 5769 5768 5766 5765 5763 5761 5760 5758 5757 5755 5754 5753 5752 5751 5752 5752 5752 5751 5750 5749 5748 5745 5743 5743 5743 5741 5741 5739 5738 5738 5737 5736 5735 5735 5735 5737 5738 5741 5744 5745 5746 5747 5749 5750 5752 5753 5755 5757 5759 5760 5762 5763 5764 5766 5767 5769 5771 5772 5774 5775
5805 5804 5803 5801 5800 5798 5796 5795 5793 5791 5789 5787 5785 5783 5782 5780 5778 5777 5775 5774 5772 5770 5769 5767 5766 5764 5763 5762 5760 5758 5757 5756 5754 5752 5751 5749 5748 5747 5745 5745 5745 5746 5747 5747 5746 5744 5741 5739 5739 5739 5737 5737 5736 5735 5734 5734 5733 5733 5732 5733 5734 5735 5737 5739 5739 5739 5741 5744 5746 5748 5749 5751 5752 5754 5757 5758 5760 5761 5762 5764 5765 5767 5769 5770 5772
5802 5801 5799 5798 5796 5795 5793 5791 5789 5787 5785 5783 5781 5779 5778 5776 5774 5772 5771 5769 5767 5766 5764 5763 5761 5760 5759 5757 5755 5754 5752 5751 5749 5748 5746 5745 5743 5742 5741 5739 5738 5739 5740 5742 5743 5741 5738 5736 5735 5735 5734 5732 5732 5732 5731 5730 5730 5729 5729 5729 5730 5731 5733 5734 5734 5735 5737 5739 5741 5744 5745 5747 5748 5750 5753 5754 5756 5757 5759 5760 5762 5763 5765 5766 5768
5798 5797 5796 5794 5793 5791 5789 5787 5785 5783 5781 5779 5777 5775 5773 5771 5769 5768 5766 5764 5762 5761 5759 5758 5756 5755 5754 5752 5751 5749 5747 5746 5745 5743 5741 5740 5738 5737 5735 5734 5733 5732 5732 5734 5737 5738 5735 5733 5731 5730 5730 5728 5727 5727 5727 5726 5726 5726 5725 5726 5726 5727 5728 5729 5729 5731 5733 5735 5737 5739 5741 5743 5744 5746 5749 5751 5752 5753 5755 5756 5758 5759 5761 5762 5764
5795 5793 5792 5791 5789 5787 5785 5783 5781 5779 5777 5775 5773 5771 5769 5767 5765 5763 5761 5759 5758 5756 5754 5753 5751 5750 5748 5747 5745 5744 5742 5741 5739 5738 5736 5735 5733 5731 5730 5729 5727 5726 5725 5725 5728 5731 5730 5728 5727 5725 5724 5723 5722 5722 5722 5722 5721 5721 5721 5722 5722 5722 5722 5723 5724 5726 5729 5732 5733 5734 5736 5738 5740 5742 5744 5746 5748 5749 5750 5752 5754 5755 5757 5759 5760
5791 5790 5788 5787 5785 5783 5781 5779 5777 5775 5773 5771 5769 5766 5764 5762 5760 5758 5756 5755 5753 5751 5749 5748 5746 5745 5743 5742 5740 5739 5737 5735 5734 5732 5731 5729 5727 5726 5725 5723 5722 5720 5720 5718 5719 5723 5724 5723 5722 5721 5718 5718 5718 5717 5717 5717 5717 5716 5716 5717 5717 5717 5717 5718 5719 5721 5724 5726 5727 5728 5731 5733 5735 5737 5739 5742 5743 5745 5746 5748 5750 5751 5753 5755 5756
5787 5786 5785 5783 5781 5779 5777 5775 5773 5771 5769 5766 5764 5762 5760 5758 5756 5754 5752 5750 5748 5746 5744 5743 5741 5739 5738 5736 5735 5733 5731 5730 5728 5726 5725 5723 5722 5720 5719 5718 5716 5714 5713 5712 5712 5714 5717 5716 5715 5715 5713 5712 5712 5712 5711 5711 5712 5711 5711 5712 5712 5712 5713 5713 5714 5715 5717 5719 5721 5723 5725 5727 5730 5731 5734 5736 5738 5740 5742 5743 5745 5747 5749 5751 5752
5784 5782 5781 5779 5777 5775 5773 5771 5769 5766 5764 5762 5760 5757 5755 5753 5751 5749 5747 5745 5743 5741 5740 5738 5736 5734 5732 5731 5729 5727 5725 5724 5722 5720 5719 5717 5715 5714 5713 5711 5710 5708 5706 5706 5705 5706 5709 5710 5709 5708 5707 5706 5706 5707 5705 5705 5706 5706 5706 5706 5707 5707 5707 5707 5708 5709 5711 5713 5715 5718 5719 5721 5724 5726 5728 5731 5733 5735 5737 5739 5741 5743 5744 5746 5748
5780 5778 5776 5775 5773 5771 5768 5766 5764 5762 5760 5757 5755 5753 5751 5749 5747 5745 5743 5741 5739 5737 5735 5733 5731 5729 5727 5725 5723 5722 5720 5718 5716 5714 5712 5710 5709 5707 5706 5705 5704 5702 5700 5698 5698 5698 5700 5702 5702 5701 5701 5700 5700 5700 5700 5699 5699 5699 5700 5700 5701 5701 5701 5702 5703 5704 5706 5707 5710 5712 5713 5714 5717 5720 5723 5725 5728 5730 5732 5734 5736 5738 5740 5742 5743
5776 5774 5772 5770 5768 5766 5764 5762 5759 5757 5755 5753 5750 5748 5746 5744 5742 5740 5738 5736 5734 5732 5730 5728 5726 5724 5722 5720 5718 5716 5714 5712 5710 5708 5705 5703 5702 5700 5699 5698 5696 5695 5694 5691 5690 5690 5691 5694 5695 5694 5694 5694 5693 5692 5693 5693 5693 5693 5693 5694 5695 5696 5696 5696 5697 5698 5699 5701 5704 5707 5709 5710 5712 5714 5717 5720 5722 5725 5727 5729 5731 5733 5735 5737 5739
5772 5770 5768 5766 5764 5762 5759 5757 5755 5753 5750 5748 5746 5744 5742 5740 5738 5735 5733 5731 5729 5727 5725 5722 5720 5718 5716 5714 5712 5710 5707 5705 5703 5701 5699 5696 5694 5692 5691 5689 5688 5687 5686 5684 5683 5682 5682 5683 5686 5687 5686 5687 5687 5686 5685 5686 5687 5686 5686 5687 5688 5689 5690 5690 5691 5691 5693 5695 5697 5700 5702 5704 5706 5709 5712 5714 5717 5719 5721 5723 5726 5727 5729 5732 5734
5767 5766 5764 5762 5760 5757 5755 5753 5750 5748 5746 5744 5742 5740 5737 5735 5733 5731 5728 5726 5723 5721 5719 5716 5714 5712 5709 5707 5704 5702 5700 5698 5695 5693 5691 5689 5687 5685 5683 5681 5680 5678 5677 5676 5675 5674 5673 5674 5676 5678 5679 5678 5679 5679 5678 5677 5679 5680 5679 5680 5681 5683 5683 5684 5684 5685 5686 5689 5691 5692 5694 5696 5699 5702 5706 5709 5711 5714 5716 5718 5720 5722 5724 5726 5729
5763 5761 5759 5757 5755 5753 5751 5748 5746 5744 5742 5740 5737 5735 5733 5731 5728 5726 5723 5720 5718 5715 5713 5710 5708 5705 5702 5699 5697 5694 5692 5690 5687 5685 5682 5680 5678 5676 5674 5673 5671 5670 5669 5667 5666 5665 5664 5664 5665 5667 5669 5670 5671 5672 5671 5670 5670 5672 5672 5672 5673 5675 5676 5678 5678 5678 5680 5682 5684 5686 5688 5690 5693 5695 5697 5701 5704 5706 5709 5711 5713 5716 5718 5721 5723
5759 5757 5755 5753 5751 5749 5746 5744 5742 5740 5738 5736 5733 5731 5728 5726 5723 5721 5718 5715 5712 5710 5707 5704 5701 5699 5696 5693 5690 5687 5685 5682 5679 5676 5673 5671 5669 5667 5665 5663 5662 5661 5659 5658 5657 5656 5655 5655 5655 5656 5658 5660 5661 5662 5663 5662 5662 5664 5664 5664 5665 5668 5669 5671 5672 5672 5673 5675 5676 5679 5681 5683 5687 5688 5689 5692 5695 5697 5701 5704 5707 5710 5712 5715 5718
5755 5753 5751 5749 5746 5744 5742 5740 5738 5736 5733 5731 5729 5726 5724 5721 5718 5716 5713 5710 5707 5704 5701 5698 5695 5692 5689 5686 5683 5680 5678 5675 5672 5669 5665 5662 5659 5657 5655 5653 5651 5650 5649 5648 5648 5647 5646 5645 5645 5646 5648 5649 5650 5651 5653 5654 5654 5655 5656 5656 5657 5660 5661 5663 5665 5666 5667 5668 5669 5671 5674 5676 5679 5680 5682 5685 5688 5690 5694 5698 5701 5703 5706 5709 5713
5751 5749 5747 5744 5742 5740 5738 5736 5733 5731 5729 5726 5724 5721 5719 5716 5713 5710 5707 5704 5701 5699 5696 5692 5689 5686 5682 5679 5676 5673 5670 5667 5664 5661 5658 5654 5651 5648 5645 5642 5640 5638 5637 5637 5636 5636 5635 5635 5635 5635 5636 5638 5640 5640 5642 5644 5645 5645 5647 5647 5649 5652 5653 5654 5657 5660 5660 5661 5663 5664 5667 5669 5671 5673 5676 5679 5681 5683 5687 5691 5693 5696 5699 5704 5708
5746 5744 5742 5740 5738 5736 5734 5731 5729 5726 5724 5722 5719 5716 5714 5711 5708 5704 5701 5699 5695 5692 5689 5686 5683 5679 5676 5672 5669 5666 5663 5660 5657 5654 5650 5647 5643 5640 5637 5633 5630 5627 5625 5624 5624 5624 5623 5623 5624 5624 5625 5627 5629 5629 5630 5633 5635 5635 5637 5638 5640 5643 5645 5647 5649 5653 5655 5655 5656 5657 5659 5663 5664 5666 5669 5672 5674 5677 5681 5684 5686 5688 5692 5697 5701
5742 5740 5738 5736 5734 5732 5729 5727 5724 5722 5719 5717 5714 5711 5708 5706 5702 5699 5696 5693 5689 5686 5683 5680 5676 5673 5669 5666 5662 5659 5655 5652 5649 5646 5643 5639 5635 5631 5628 5625 5621 5618 5614 5611 5610 5610 5610 5610 5611 5612 5613 5614 5617 5619 5620 5621 5623 5625 5627 5629 5631 5633 5636 5639 5642 5645 5648 5648 5648 5649 5653 5656 5658 5660 5663 5666 5668 5671 5674 5678 5680 5682 5686 5689 5693
5738 5736 5734 5732 5730 5728 5725 5723 5720 5718 5715 5712 5709 5706 5703 5700 5697 5694 5690 5687 5683 5680 5677 5673 5670 5666 5663 5659 5655 5651 5648 5644 5641 5638 5634 5630 5626 5623 5619 5616 5612 5608 5604 5601 5598 5596 5596 5596 5596 5599 5600 5600 5603 5608 5609 5609 5611 5614 5616 5619 5621 5623 5626 5630 5634 5638 5640 5640 5641 5643 5646 5649 5653 5655 5657 5659 5662 5665 5667 5670 5674 5676 5679 5682 5686
5734 5732 5730 5728 5726 5724 5721 5719 5716 5713 5710 5707 5704 5701 5698 5695 5692 5688 5685 5681 5677 5674 5670 5667 5663 5659 5655 5652 5648 5644 5640 5636 5632 5628 5625 5621 5616 5612 5609 5605 5601 5597 5593 5589 5586 5584 5582 5581 5582 5583 5585 5586 5589 5594 5597 5598 5600 5602 5605 5608 5611 5613 5617 5621 5625 5630 5633 5634 5635 5637 5639 5643 5646 5648 5650 5653 5655 5658 5661 5664 5667 5670 5672 5676 5679
5730 5728 5726 5724 5722 5720 5717 5715 5712 5709 5706 5703 5700 5697 5693 5690 5687 5683 5679 5676 5672 5668 5664 5660 5656 5652 5648 5644 5640 5636 5632 5627 5623 5618 5614 5610 5605 5601 5597 5592 5588 5584 5580 5576 5572 5570 5568 5567 5566 5568 5569 5570 5573 5578 5583 5586 5588 5591 5594 5596 5600 5603 5607 5610 5616 5622 5626 5628 5630 5632 5634 5637 5639 5642 5645 5647 5648 5651 5655 5658 5660 5663 5666 5669 5672
5726 5724 5722 5720 5718 5715 5713 5711 5708 5705 5702 5699 5696 5692 5689 5685 5682 5678 5675 5671 5667 5663 5659 5655 5650 5646 5641 5637 5633 5628 5624 5619 5614 5609 5604 5599 5594 5589 5584 5579 5574 5570 5565 5561 5557 5554 5552 5551 5550 5551 5552 5554 5556 5561 5567 5572 5576 5579 5581 5585 5590 5594 5597 5601 5608 5613 5617 5621 5623 5626 5629 5631 5633 5636 5640 5642 5643 5646 5648 5651 5653 5656 5660 5662 5665
5722 5720 5718 5716 5714 5712 5709 5707 5704 5701 5699 5695 5692 5689 5685 5681 5677 5674 5670 5667 5662 5658 5654 5649 5645 5640 5636 5631 5627 5622 5617 5612 5606 5601 5595 5590 5583 5577 5571 5565 5560 5554 5549 5545 5541 5537 5534 5533 5533 5533 5535 5537 5539 5544 5550 5556 5562 5566 5568 5575 5581 5583 5586 5592 5599 5604 5608 5613 5616 5620 5622 5625 5627 5631 5633 5635 5637 5640 5642 5644 5647 5649 5653 5656 5658
5719 5717 5715 5713 5710 5708 5706 5703 5700 5698 5695 5691 5688 5684 5681 5677 5673 5669 5666 5662 5658 5653 5649 5644 5640 5635 5630 5625 5620 5615 5610 5604 5598 5592 5586 5579 5572 5565 5558 5551 5545 5539 5534 5530 5526 5523 5520 5517 5515 5515 5516 5519 5522 5528 5534 5540 5547 5551 5556 5566 5571 5571 5575 5584 5590 5594 5599 5604 5609 5613 5615 5618 5622 5624 5626 5628 5630 5632 5634 5637 5639 5641 5645 5649 5652
5716 5714 5711 5709 5707 5704 5702 5699 5696 5694 5690 5687 5683 5680 5676 5673 5669 5665 5661 5657 5653 5648 5644 5640 5635 5630 5625 5620 5614 5609 5603 5597 5591 5583 5576 5568 5560 5552 5545 5538 5533 5528 5523 5519 5516 5514 5511 5508 5504 5501 5500 5501 5505 5511 5517 5524 5531 5537 5545 5554 5558 5560 5567 5576 5580 5585 5591 5597 5603 5606 5608 5612 5615 5617 5620 5622 5624 5625 5627 5629 5631 5633 5637 5641 5645